Cork, Ireland

1:28 PM IST on October 24, 2017 (GMT +0100)
Cork

Weather History for EICK - October, 2011

Change the Weather History Date:

Sunday, October 2, 2011

  Actual Average Record
Temperature  
Mean Temperature 59 °F -  
Max Temperature 61 °F 56 °F 66 °F (1997)
Min Temperature 57 °F 46 °F 41 °F (2008)
Degree Days  
Heating Degree Days 6    
Growing Degree Days 9 (Base 50)    
Moisture  
Dew Point 59 °F    
Average Humidity 100    
Maximum Humidity 100    
Minimum Humidity 98    
Precipitation  
Precipitation 0.04 in 0.16 in - ()
Sea Level Pressure  
Sea Level Pressure 30.14 in    
Wind  
Wind Speed 6 mph ()    
Max Wind Speed 10 mph    
Max Gust Speed -    
Visibility 0.6 miles    
Events Fog , Rain    
Averages and records for this station are not official NWS values.
T = Trace of Precipitation, MM = Missing Value Source: Averaged Metar Reports

Daily Weather History Graph

Daily Weather History Graph

Search for Another Location

Airport or City:

Trip Planner

Search our weather history database for the weather conditions in past years. The results will help you decide how hot, cold, wet, or windy it might be!

Date:

Astronomy

Oct. 02, 2011 Rise Set
Actual Time 7:35 AM IST 7:10 PM IST
Civil Twilight 7:02 AM IST 7:43 PM IST
Nautical Twilight 6:23 AM IST 8:22 PM IST
Astronomical Twilight 5:42 AM IST 9:02 PM IST
Moon 2:13 PM IST (10/2) 10:10 PM IST (10/2)
Length of Visible Light 12h 41m
Length of Day
11h 34m
Waxing Crescent, 32% of the Moon is Illuminated
Oct 2
Waxing Crescent
Oct 4
First Quarter
Oct 12
Full
Oct 20
Last Quarter
Oct 26
New

Hourly Weather History & Observations

Time (IST) Temp. Dew Point Humidity Pressure Visibility Wind Dir Wind Speed Gust Speed Precip Events Conditions
12:00 AM 59.0 °F 59.0 °F 100% 30.15 in 0.2 mi ESE 6.9 mph - N/A Fog , Rain Light Rain
12:30 AM 59.0 °F 59.0 °F 100% 30.15 in 0.2 mi ESE 5.8 mph - N/A Fog Light Drizzle
1:00 AM 58 °F 58 °F 100% 30.17 in 1 mi SE 8.9 mph - - Rain Light Drizzle
1:00 AM 59.0 °F 59.0 °F 100% 30.15 in 0.7 mi SE 9.2 mph - N/A   Light Drizzle
1:30 AM 57.2 °F 57.2 °F 100% 30.15 in 1.2 mi SSE 8.1 mph - N/A   Mostly Cloudy
2:00 AM 57.2 °F 57.2 °F 100% 30.15 in 1.2 mi SSE 6.9 mph - N/A   Mostly Cloudy
2:30 AM 57.2 °F 57.2 °F 100% 30.15 in 1.2 mi South 6.9 mph - N/A   Mostly Cloudy
3:00 AM 57.2 °F 57.2 °F 100% 30.15 in 1.1 mi SSE 6.9 mph - N/A   Mostly Cloudy
3:30 AM 57.2 °F 57.2 °F 100% 30.15 in 1.2 mi SSE 3.5 mph - N/A   Mostly Cloudy
4:00 AM 57.2 °F 57.2 °F 100% 30.15 in 0.7 mi SSE 4.6 mph - N/A   Mostly Cloudy
4:30 AM 57.2 °F 57.2 °F 100% 30.12 in 0.3 mi SE 4.6 mph - N/A Fog Fog
5:00 AM 57.2 °F 57.2 °F 100% 30.12 in 0.2 mi SE 4.6 mph - N/A Fog Fog
5:30 AM 57.2 °F 57.2 °F 100% 30.12 in 0.2 mi SE 4.6 mph - N/A Fog Fog
6:00 AM 57.2 °F 57.2 °F 100% 30.12 in 0.2 mi SE 6.9 mph - N/A Fog Fog
6:30 AM 57.2 °F 57.2 °F 100% 30.12 in 0.3 mi South 3.5 mph - N/A Fog Fog
7:00 AM 58 °F 58 °F 98% 30.15 in 0 mi South 4.5 mph - - Fog Partial Fog
7:00 AM 57.2 °F 57.2 °F 100% 30.12 in 0.2 mi South 3.5 mph - N/A Fog Fog
7:30 AM 57.2 °F 57.2 °F 100% 30.15 in 0.2 mi South 2.3 mph - N/A Fog Fog
8:00 AM 57.2 °F 57.2 °F 100% 30.15 in 0.1 mi SSW 4.6 mph - N/A Fog Fog
8:30 AM 57.2 °F 57.2 °F 100% 30.12 in 0.1 mi SSE 5.8 mph - N/A Fog Fog
9:00 AM 57.2 °F 57.2 °F 100% 30.15 in 0.1 mi South 4.6 mph - N/A Fog Fog
9:30 AM 57.2 °F 57.2 °F 100% 30.15 in 0.2 mi SW 4.6 mph - N/A Fog Fog
10:00 AM 59.0 °F 59.0 °F 100% 30.15 in 0.2 mi SSW 3.5 mph - N/A Fog Fog
10:30 AM 59.0 °F 59.0 °F 100% 30.15 in 0.2 mi South 3.5 mph - N/A Fog Fog
11:00 AM 59.0 °F 59.0 °F 100% 30.18 in 0.1 mi South 5.8 mph - N/A Fog Fog
11:30 AM 59.0 °F 59.0 °F 100% 30.15 in 0.2 mi South 5.8 mph - N/A Fog Fog
12:00 PM 60.8 °F 60.8 °F 100% 30.15 in 0.4 mi SSW 5.8 mph - N/A Fog Fog
12:30 PM 60.8 °F 60.8 °F 100% 30.15 in 0.4 mi South 8.1 mph - N/A Fog , Rain Light Rain
1:00 PM 62 °F 62 °F 98% 30.16 in 0 mi SSW 6.7 mph - - Fog Heavy Fog
1:00 PM 60.8 °F 60.8 °F 100% 30.15 in 0.5 mi SSW 6.9 mph - N/A Fog Fog
1:30 PM 60.8 °F 60.8 °F 100% 30.15 in 0.3 mi SSW 9.2 mph - N/A Fog Fog
2:00 PM 60.8 °F 60.8 °F 100% 30.15 in 0.2 mi SSW 9.2 mph - N/A Fog , Rain Light Rain
2:30 PM 60.8 °F 60.8 °F 100% 30.15 in 0.2 mi SSW 9.2 mph - N/A Fog , Rain Light Rain
3:00 PM 60.8 °F 60.8 °F 100% 30.15 in 0.2 mi SW 10.4 mph - N/A Fog , Rain Light Rain
3:30 PM 60.8 °F 60.8 °F 100% 30.15 in 0.5 mi SW 10.4 mph - N/A Fog , Rain Light Rain
4:00 PM 60.8 °F 60.8 °F 100% 30.15 in 0.7 mi SW 8.1 mph - N/A   Mist
4:30 PM 60.8 °F 60.8 °F 100% 30.15 in 2.8 mi SW 5.8 mph - N/A   Mostly Cloudy
5:00 PM 60.8 °F 60.8 °F 100% 30.12 in 3.7 mi SSW 8.1 mph - N/A   Mostly Cloudy
5:30 PM 60.8 °F 60.8 °F 100% 30.12 in 3.7 mi SSW 8.1 mph - N/A   Mostly Cloudy
6:00 PM 60.8 °F 60.8 °F 100% 30.12 in 3.1 mi SSW 6.9 mph - N/A   Mostly Cloudy
6:30 PM 60.8 °F 60.8 °F 100% 30.12 in 0.2 mi South 8.1 mph - N/A Fog Fog
7:00 PM 59 °F 59 °F 98% 30.15 in 0 mi SSW 6.7 mph - - Fog Heavy Fog
7:00 PM 59.0 °F 59.0 °F 100% 30.12 in 0.2 mi SSW 6.9 mph - N/A Fog Fog
7:30 PM 59.0 °F 59.0 °F 100% 30.12 in 0.2 mi SW 8.1 mph - N/A Fog Fog
8:00 PM 59.0 °F 59.0 °F 100% 30.12 in 0.4 mi WSW 6.9 mph - N/A Fog Fog
8:30 PM 57.2 °F 57.2 °F 100% 30.12 in 0.2 mi SW 8.1 mph - N/A Fog Fog
9:00 PM 57.2 °F 57.2 °F 100% 30.12 in 0.2 mi SW 6.9 mph - N/A Fog Light Drizzle
9:30 PM 57.2 °F 57.2 °F 100% 30.12 in 0.2 mi SSW 8.1 mph - N/A Fog Light Drizzle
10:00 PM 57.2 °F 57.2 °F 100% 30.12 in 0.3 mi SW 8.1 mph - N/A Fog Fog
10:30 PM 57.2 °F 57.2 °F 100% 30.12 in 0.3 mi WSW 8.1 mph - N/A Fog Fog
11:00 PM 57.2 °F 57.2 °F 100% 30.12 in 0.4 mi SW 8.1 mph - N/A Fog Fog
11:30 PM 57.2 °F 57.2 °F 100% 30.12 in 0.3 mi SW 6.9 mph - N/A Fog Fog